SCP
0 0 0 0 0 0 0 0 0 0 0 0 0 0 0 0 0 0 0 0 0 0 0 0 0 0 0 1 0 0 0 0 0 0 0 0 0 0 0 0 0 -0 -0
0 0 0 0 0 0 0 0 0 0 0 0 0 0 0 0 0 0 0 0 0 0 0 0 0 0 0 0 0 0 0 0 0 -0 -0 0 -0 0 0 0 0 -0 -0
0 0 0 0 0 0 0 0 0 0 0 0 0 0 0 0 0 0 0 0 0 0 0 0 0 0 0 0 0 0 0 0 0 -0 -0 -0 -0 0 0 0 0 -0 -0
0 0 0 0 0 0 0 0 0 0 0 0 0 0 0 0 0 0 0 0 0 0 0 0 0 0 0 0 0 0 0 0 0 -0 -0 -0 -0 0 -0 -0 -0 -0 -0
0 0 0 0 0 0 0 0 0 0 0 0 0 0 0 0 0 0 0 0 0 0 0 0 0 0 0 0 0 0 0 0 0 -0 -0 -0 -0 0 -0 -0 -0 -0 -0
0 0 0 0 0 0 0 0 0 0 0 0 0 0 0 0 0 0 0 0 0 0 0 0 0 0 0 0 0 -0 -0 -0 -0 -0 -0 -0 0 0 0 -0 -0 -0 -0
0 0 0 0 0 0 0 0 0 0 0 0 0 0 0 0 0 0 0 0 0 0 0 0 0 0 0 0 0 0 -0 -0 -0 0 -0 -0 0 0 -0 -0 -0 -0 -0
0 0 0 0 0 0 0 0 0 0 0 0 0 0 0 0 0 0 0 0 0 0 0 0 0 0 0 0 0 0 0 0 0 0 0 0 0 0 0 -0 -0 -0 -0
0 0 0 0 0 0 0 0 0 0 0 0 0 0 0 0 0 0 0 0 0 0 0 0 0 0 0 -0 0 0 0 0 0 0 0 0 0 0 0 -0 -0 -0 -0
0 0 0 0 0 0 0 0 0 0 0 0 0 0 0 0 -0 0 0 0 0 0 0 0 0 0 0 -0 0 0 0 0 0 0 0 0 0 0 0 -0 -0 -0 -0
0 0 0 0 0 0 0 0 0 0 0 0 0 0 0 0 0 -0 -0 0 0 0 0 0 0 0 -0 -0 -0 0 0 0 0 0 0 0 0 0 -0 -0 -0 -0 -0
0 0 0 0 0 0 0 0 0 0 0 0 0 0 0 0 0 0 0 0 0 0 0 0 0 0 -0 -0 0 0 0 0 0 0 0 0 -0 -0 -0 -0 -0 -0 -0
0 0 0 0 0 0 0 0 0 0 0 0 0 0 0 0 0 0 0 0 0 0 0 0 -0 0 0 0 0 0 0 0 0 0 0 -0 -0 -0 -0 -0 -0 -0 -0
0 0 0 0 0 0 0 0 0 0 0 0 0 0 0 0 0 0 0 0 0 0 0 0 0 0 0 0 0 0 0 0 0 -0 -0 0 0 -0 -0 -0 0 -0 -0
0 0 0 0 0 0 0 0 0 0 0 0 0 0 0 0 0 0 0 0 0 0 0 0 0 0 0 0 0 0 -0 -0 0 0 -0 0 0 0 0 0 0 -0 -0
0 0 0 0 0 0 0 0 0 0 0 0 0 0 0 0 0 0 0 0 -0 -0 -0 0 0 0 0 0 -0 0 0 0 0 0 0 0 0 0 0 0 0 -0 -0
0 0 0 0 0 0 0 0 0 0 0 0 0 0 0 0 0 0 0 0 -0 -0 -0 0 0 0 -0 -0 0 0 0 0 0 -0 -0 0 0 0 0 0 0 0 -0
0 0 0 0 0 0 0 0 0 0 0 0 0 0 0 0 0 0 0 0 0 0 -0 0 0 0 -0 -0 -0 0 0 0 0 -0 -0 -0 0 0 0 0 0 0 0
0 0 0 0 0 0 0 0 0 0 0 0 0 0 0 0 0 0 0 0 -0 -0 -0 0 0 0 -0 -0 -0 -0 -0 0 0 0 0 0 0 0 0 0 0 0 0
0 0 0 0 0 0 0 0 0 0 0 0 0 0 0 0 0 0 0 0 -0 -0 -0 -0 0 0 0 -0 -0 -0 -0 0 0 0 0 0 0 0 0 0 0 0 0
0 0 0 0 0 0 0 0 0 0 0 0 0 0 0 0 0 0 0 0 -0 -0 -0 0 0 0 0 -0 -0 -0 -0 0 0 0 0 0 0 0 0 0 0 0 0
0 0 0 0 0 0 0 0 0 0 0 0 0 0 0 0 0 0 0 -0 -0 -0 -0 -0 0 0 0 0 -0 -0 -0 0 0 0 0 0 0 0 0 0 0 0 0
0 0 0 0 0 0 0 0 0 0 0 0 0 0 0 0 0 0 0 -0 -0 -0 -0 -0 0 0 0 0 0 -0 -0 -0 0 0 0 0 0 0 0 0 0 0 0
0 0 0 0 0 0 0 0 0 0 0 0 0 0 0 0 0 0 -0 -0 -0 -0 -0 0 0 -0 -0 0 0 0 -0 -0 0 0 0 0 0 0 0 0 0 0 0
0 0 0 0 0 0 0 0 0 0 0 0 0 0 0 0 0 0 -0 -0 0 0 0 0 0 -0 -0 -0 -0 -0 -0 -0 -0 0 0 0 0 0 0 0 0 0 0
0 0 0 0 0 0 0 0 0 0 0 0 0 0 0 0 0 0 -0 -0 0 0 0 0 0 -0 -0 -0 -0 -0 -0 -0 -0 -0 0 0 0 0 0 0 0 0 0
Wind_Speed_500mb
83 71 61 52 46 39 36 40 46 52 60 66 73 74 73 72 72 73 76 77 78 80 76 78 92 87 92 91 89 94 91 93 106 107 104 84 98 98 94 87 94 94 103
85 73 61 53 43 38 38 41 47 53 59 67 71 70 69 69 71 76 80 80 82 84 82 76 88 83 88 90 89 90 93 95 94 96 82 92 103 90 87 85 71 76 91
86 72 62 51 43 39 37 41 46 51 58 64 66 67 69 71 76 79 81 82 84 81 76 74 79 77 87 85 83 89 86 88 89 87 93 91 94 94 70 68 82 89 92
85 72 61 52 42 38 36 38 42 50 58 59 62 66 68 72 76 79 79 80 76 73 73 79 82 79 81 77 79 84 84 85 83 82 86 86 97 76 58 57 61 74 79
84 71 59 48 40 36 35 36 41 49 53 57 62 64 67 72 75 78 77 71 72 78 77 78 80 79 77 79 82 87 83 81 82 76 71 81 85 74 55 55 59 55 56
80 67 56 45 38 34 34 36 42 48 50 54 59 66 70 75 77 78 62 72 72 76 87 86 77 78 81 77 80 83 84 90 91 85 84 73 75 63 50 50 55 68 67
78 66 54 44 38 34 33 36 41 46 49 53 58 64 69 72 74 72 64 69 76 79 81 90 88 84 77 79 75 76 78 81 85 93 93 90 78 70 52 51 54 56 74
80 66 56 45 37 33 31 33 38 45 49 53 57 60 66 67 71 70 64 74 75 76 80 87 87 85 81 76 79 83 89 90 85 84 93 99 91 92 66 66 64 59 76
77 64 52 42 34 28 27 30 38 45 48 49 55 63 66 64 70 60 64 77 78 89 88 85 84 82 82 77 79 86 87 84 84 80 80 82 74 78 58 49 64 64 74
73 58 45 36 29 23 21 29 38 45 46 49 54 59 62 69 68 58 64 74 89 92 92 87 77 79 75 71 76 82 85 88 87 83 76 77 69 76 89 85 80 74 75
69 55 42 33 26 20 19 27 37 42 43 47 54 55 59 59 65 58 63 76 86 94 92 94 86 81 80 76 73 78 78 76 75 71 74 70 78 77 68 76 83 77 82
61 47 37 28 22 17 18 22 32 39 43 48 50 51 50 56 58 62 68 73 79 89 89 84 86 81 77 72 73 72 70 72 74 78 72 68 70 64 82 87 87 87 94
56 43 33 25 19 15 15 19 26 31 38 44 40 44 50 56 60 66 75 76 76 74 71 79 73 71 67 60 57 62 66 71 69 71 74 77 67 76 81 83 76 88 95
48 36 26 23 18 13 12 17 21 27 32 34 36 44 50 56 67 79 85 92 75 73 76 69 58 57 41 38 47 48 49 53 62 70 65 70 67 70 69 68 78 86 93
48 37 31 26 18 11 10 11 15 21 28 29 31 38 47 58 65 66 72 78 69 69 63 60 56 67 58 48 42 39 43 48 47 58 71 73 72 70 71 70 72 81 91
49 42 35 27 18 11 6 8 10 15 22 22 22 26 36 42 53 59 64 62 59 60 64 69 75 64 68 68 64 58 49 43 36 26 50 66 65 70 72 74 70 73 81
50 43 37 29 20 13 11 7 0 11 15 19 25 27 34 41 47 52 57 60 56 69 81 80 69 79 68 73 70 67 60 55 43 38 42 43 49 68 73 73 74 71 73
52 43 35 29 22 17 12 6 5 4 8 14 19 28 35 42 43 49 58 64 75 81 82 83 82 78 82 76 79 77 70 64 55 42 41 49 58 59 61 65 64 63 74
50 43 38 30 24 19 13 8 5 7 13 15 17 20 26 38 43 51 60 70 77 81 81 84 85 84 91 84 92 90 78 76 71 54 41 40 45 50 61 61 57 54 86
49 41 36 33 28 22 16 11 6 7 11 17 26 30 35 39 46 54 61 68 72 79 81 83 86 86 89 85 91 88 86 75 80 63 48 35 33 36 44 54 47 75 92
52 45 39 34 29 26 19 13 9 7 10 17 22 25 29 36 44 50 56 64 70 75 81 83 88 91 94 86 93 92 90 89 90 71 56 43 35 27 33 46 55 84 94
51 46 43 38 34 27 21 14 9 7 10 14 15 19 23 30 37 43 49 56 63 69 74 80 86 90 94 93 101 102 99 102 93 74 59 47 34 21 25 40 50 61 89
51 46 45 42 34 29 23 17 12 8 9 10 11 15 22 28 34 39 44 49 56 65 70 76 83 92 97 98 106 106 103 105 91 71 63 54 40 21 21 32 49 58 74
50 47 45 40 36 30 25 20 15 11 8 5 8 15 21 27 31 36 42 47 50 56 64 69 78 85 97 104 111 108 105 106 95 77 64 56 41 19 22 39 51 58 69
51 50 45 40 37 31 28 22 18 13 7 2 6 13 18 24 28 34 40 45 48 54 58 63 71 79 91 101 110 116 104 107 103 97 78 59 44 23 8 32 49 61 67
51 47 43 40 35 32 27 23 18 13 7 0 6 11 17 23 27 32 37 43 46 50 54 58 64 71 79 86 100 114 113 107 106 106 99 79 62 46 19 22 38 46 60
Wind_Direction_500mb
223 227 232 239 247 259 274 285 294 302 307 309 309 310 311 310 306 302 298 296 293 290 284 278 277 275 271 267 263 265 258 258 266 273 265 268 266 264 261 256 259 264 248
222 224 228 236 245 258 271 284 296 304 310 311 312 313 313 313 311 307 303 300 297 292 289 281 277 277 272 268 266 263 261 263 264 272 276 274 268 275 262 253 257 260 254
220 221 226 233 242 256 273 287 300 308 312 313 314 316 317 316 313 310 306 304 299 294 292 287 283 279 275 271 268 265 264 265 267 271 267 270 267 271 256 257 266 274 271
217 219 224 230 240 256 269 287 302 308 311 314 316 314 314 315 314 312 308 305 302 296 291 287 284 280 277 275 271 268 267 270 271 270 266 269 264 277 256 267 275 281 276
214 216 221 229 241 256 276 292 301 306 310 313 313 315 317 317 317 314 311 307 301 299 296 291 287 283 277 272 272 271 269 269 272 271 267 264 265 270 258 262 261 273 286
211 213 218 227 241 258 277 290 299 306 310 313 317 319 320 320 321 318 308 306 301 301 300 296 290 285 279 273 270 267 266 268 267 267 268 269 260 276 262 265 275 286 291
208 211 216 227 240 259 275 287 300 308 312 318 319 318 318 320 322 320 310 308 306 304 299 296 292 286 282 280 277 271 268 264 263 265 264 261 265 257 275 269 279 289 280
206 207 213 222 237 256 273 290 304 309 315 319 316 316 317 323 324 323 316 310 308 307 302 300 294 289 284 282 280 278 279 277 275 264 257 258 261 257 260 269 271 280 281
205 207 212 221 236 255 276 297 304 310 315 317 319 319 320 326 334 324 318 315 314 307 306 302 298 292 284 277 276 279 279 273 276 267 263 252 259 250 247 260 272 279 287
201 205 212 227 239 251 280 301 309 313 319 321 320 320 323 337 339 322 322 318 313 309 308 301 295 291 287 281 276 276 278 279 270 271 267 251 256 249 249 254 259 265 277
196 201 210 224 238 259 287 306 312 315 321 322 319 325 338 336 335 326 326 321 316 312 309 306 301 296 286 279 274 272 276 281 273 266 262 263 246 252 244 240 249 264 273
193 199 210 221 237 257 286 310 313 318 323 322 325 336 333 337 335 332 329 325 319 313 312 311 310 304 291 284 274 272 274 276 272 261 261 256 246 249 249 253 259 262 265
192 198 208 216 232 253 290 309 313 320 324 329 335 329 331 341 343 339 335 331 324 321 320 318 317 321 302 275 277 274 273 269 272 254 249 250 246 247 245 249 253 256 262
193 197 206 215 223 246 288 306 318 328 329 342 334 330 335 343 350 342 343 336 333 335 327 332 339 337 338 309 300 298 288 279 266 259 255 254 249 253 254 247 249 255 259
196 198 201 208 213 232 272 300 322 330 339 339 333 337 340 346 347 343 345 342 339 338 335 352 356 353 350 341 327 314 300 284 281 265 252 250 246 249 249 248 252 259 265
190 193 193 197 199 205 245 304 341 342 337 342 339 342 349 345 344 347 349 351 351 353 6 9 359 352 349 346 343 338 329 318 293 261 250 253 253 239 243 253 259 265 262
192 190 185 187 190 184 181 180 84 353 343 354 359 3 7 354 355 355 353 4 5 9 20 16 359 353 346 347 344 342 332 328 319 289 265 250 251 258 259 259 266 262 244
186 181 178 182 182 182 176 142 85 51 27 20 6 8 12 12 8 8 11 12 17 22 22 16 6 353 352 345 346 343 344 340 333 314 286 267 254 249 256 259 260 250 215
182 176 175 176 177 177 162 126 74 30 30 26 28 22 17 19 17 18 20 22 17 18 19 18 14 360 358 352 350 349 353 344 338 327 307 284 269 264 256 257 248 236 192
176 174 175 175 175 170 160 141 110 57 32 20 20 14 23 15 18 22 23 23 20 19 19 19 17 7 359 355 351 348 350 341 340 336 330 312 285 270 250 245 233 204 183
175 174 174 172 173 163 155 139 114 81 48 36 25 20 25 16 21 22 22 23 21 19 19 18 19 15 8 359 354 352 352 347 351 347 340 325 305 279 226 227 213 195 184
174 172 172 172 169 160 151 142 138 99 64 47 29 26 26 22 20 19 20 21 22 20 18 17 18 18 15 8 358 359 360 352 355 351 341 333 317 287 220 220 213 197 187
172 173 174 170 165 161 153 158 147 130 90 63 35 27 28 25 20 17 12 14 18 19 17 17 18 19 21 17 6 9 6 357 359 356 350 346 339 317 220 208 215 208 196
170 174 175 169 165 163 163 165 160 147 108 64 31 24 21 21 16 13 11 9 14 19 20 17 19 20 21 20 10 15 17 9 12 10 9 2 352 327 231 204 218 205 205
173 176 173 171 169 169 170 169 166 158 145 128 31 19 15 14 11 9 9 9 14 16 21 21 19 21 21 20 12 15 19 19 20 22 21 19 15 6 227 205 214 211 210
174 175 173 173 172 174 173 175 173 170 175 176 8 10 7 5 3 3 4 6 10 15 18 18 18 20 23 20 12 13 16 22 23 29 27 28 29 32 54 172 193 201 210
Wind_Speed_850mb
83 71 61 52 46 39 36 40 46 52 60 66 73 74 73 72 72 73 76 77 78 80 76 78 92 87 92 91 89 94 91 93 106 107 104 84 98 98 94 87 94 94 103
85 73 61 53 43 38 38 41 47 53 59 67 71 70 69 69 71 76 80 80 82 84 82 76 88 83 88 90 89 90 93 95 94 96 82 92 103 90 87 85 71 76 91
86 72 62 51 43 39 37 41 46 51 58 64 66 67 69 71 76 79 81 82 84 81 76 74 79 77 87 85 83 89 86 88 89 87 93 91 94 94 70 68 82 89 92
85 72 61 52 42 38 36 38 42 50 58 59 62 66 68 72 76 79 79 80 76 73 73 79 82 79 81 77 79 84 84 85 83 82 86 86 97 76 58 57 61 74 79
84 71 59 48 40 36 35 36 41 49 53 57 62 64 67 72 75 78 77 71 72 78 77 78 80 79 77 79 82 87 83 81 82 76 71 81 85 74 55 55 59 55 56
80 67 56 45 38 34 34 36 42 48 50 54 59 66 70 75 77 78 62 72 72 76 87 86 77 78 81 77 80 83 84 90 91 85 84 73 75 63 50 50 55 68 67
78 66 54 44 38 34 33 36 41 46 49 53 58 64 69 72 74 72 64 69 76 79 81 90 88 84 77 79 75 76 78 81 85 93 93 90 78 70 52 51 54 56 74
80 66 56 45 37 33 31 33 38 45 49 53 57 60 66 67 71 70 64 74 75 76 80 87 87 85 81 76 79 83 89 90 85 84 93 99 91 92 66 66 64 59 76
77 64 52 42 34 28 27 30 38 45 48 49 55 63 66 64 70 60 64 77 78 89 88 85 84 82 82 77 79 86 87 84 84 80 80 82 74 78 58 49 64 64 74
73 58 45 36 29 23 21 29 38 45 46 49 54 59 62 69 68 58 64 74 89 92 92 87 77 79 75 71 76 82 85 88 87 83 76 77 69 76 89 85 80 74 75
69 55 42 33 26 20 19 27 37 42 43 47 54 55 59 59 65 58 63 76 86 94 92 94 86 81 80 76 73 78 78 76 75 71 74 70 78 77 68 76 83 77 82
61 47 37 28 22 17 18 22 32 39 43 48 50 51 50 56 58 62 68 73 79 89 89 84 86 81 77 72 73 72 70 72 74 78 72 68 70 64 82 87 87 87 94
56 43 33 25 19 15 15 19 26 31 38 44 40 44 50 56 60 66 75 76 76 74 71 79 73 71 67 60 57 62 66 71 69 71 74 77 67 76 81 83 76 88 95
48 36 26 23 18 13 12 17 21 27 32 34 36 44 50 56 67 79 85 92 75 73 76 69 58 57 41 38 47 48 49 53 62 70 65 70 67 70 69 68 78 86 93
48 37 31 26 18 11 10 11 15 21 28 29 31 38 47 58 65 66 72 78 69 69 63 60 56 67 58 48 42 39 43 48 47 58 71 73 72 70 71 70 72 81 91
49 42 35 27 18 11 6 8 10 15 22 22 22 26 36 42 53 59 64 62 59 60 64 69 75 64 68 68 64 58 49 43 36 26 50 66 65 70 72 74 70 73 81
50 43 37 29 20 13 11 7 0 11 15 19 25 27 34 41 47 52 57 60 56 69 81 80 69 79 68 73 70 67 60 55 43 38 42 43 49 68 73 73 74 71 73
52 43 35 29 22 17 12 6 5 4 8 14 19 28 35 42 43 49 58 64 75 81 82 83 82 78 82 76 79 77 70 64 55 42 41 49 58 59 61 65 64 63 74
50 43 38 30 24 19 13 8 5 7 13 15 17 20 26 38 43 51 60 70 77 81 81 84 85 84 91 84 92 90 78 76 71 54 41 40 45 50 61 61 57 54 86
49 41 36 33 28 22 16 11 6 7 11 17 26 30 35 39 46 54 61 68 72 79 81 83 86 86 89 85 91 88 86 75 80 63 48 35 33 36 44 54 47 75 92
52 45 39 34 29 26 19 13 9 7 10 17 22 25 29 36 44 50 56 64 70 75 81 83 88 91 94 86 93 92 90 89 90 71 56 43 35 27 33 46 55 84 94
51 46 43 38 34 27 21 14 9 7 10 14 15 19 23 30 37 43 49 56 63 69 74 80 86 90 94 93 101 102 99 102 93 74 59 47 34 21 25 40 50 61 89
51 46 45 42 34 29 23 17 12 8 9 10 11 15 22 28 34 39 44 49 56 65 70 76 83 92 97 98 106 106 103 105 91 71 63 54 40 21 21 32 49 58 74
50 47 45 40 36 30 25 20 15 11 8 5 8 15 21 27 31 36 42 47 50 56 64 69 78 85 97 104 111 108 105 106 95 77 64 56 41 19 22 39 51 58 69
51 50 45 40 37 31 28 22 18 13 7 2 6 13 18 24 28 34 40 45 48 54 58 63 71 79 91 101 110 116 104 107 103 97 78 59 44 23 8 32 49 61 67
51 47 43 40 35 32 27 23 18 13 7 0 6 11 17 23 27 32 37 43 46 50 54 58 64 71 79 86 100 114 113 107 106 106 99 79 62 46 19 22 38 46 60
Wind_Direction_850mb
223 227 232 239 247 259 274 285 294 302 307 309 309 310 311 310 306 302 298 296 293 290 284 278 277 275 271 267 263 265 258 258 266 273 265 268 266 264 261 256 259 264 248
222 224 228 236 245 258 271 284 296 304 310 311 312 313 313 313 311 307 303 300 297 292 289 281 277 277 272 268 266 263 261 263 264 272 276 274 268 275 262 253 257 260 254
220 221 226 233 242 256 273 287 300 308 312 313 314 316 317 316 313 310 306 304 299 294 292 287 283 279 275 271 268 265 264 265 267 271 267 270 267 271 256 257 266 274 271
217 219 224 230 240 256 269 287 302 308 311 314 316 314 314 315 314 312 308 305 302 296 291 287 284 280 277 275 271 268 267 270 271 270 266 269 264 277 256 267 275 281 276
214 216 221 229 241 256 276 292 301 306 310 313 313 315 317 317 317 314 311 307 301 299 296 291 287 283 277 272 272 271 269 269 272 271 267 264 265 270 258 262 261 273 286
211 213 218 227 241 258 277 290 299 306 310 313 317 319 320 320 321 318 308 306 301 301 300 296 290 285 279 273 270 267 266 268 267 267 268 269 260 276 262 265 275 286 291
208 211 216 227 240 259 275 287 300 308 312 318 319 318 318 320 322 320 310 308 306 304 299 296 292 286 282 280 277 271 268 264 263 265 264 261 265 257 275 269 279 289 280
206 207 213 222 237 256 273 290 304 309 315 319 316 316 317 323 324 323 316 310 308 307 302 300 294 289 284 282 280 278 279 277 275 264 257 258 261 257 260 269 271 280 281
205 207 212 221 236 255 276 297 304 310 315 317 319 319 320 326 334 324 318 315 314 307 306 302 298 292 284 277 276 279 279 273 276 267 263 252 259 250 247 260 272 279 287
201 205 212 227 239 251 280 301 309 313 319 321 320 320 323 337 339 322 322 318 313 309 308 301 295 291 287 281 276 276 278 279 270 271 267 251 256 249 249 254 259 265 277
196 201 210 224 238 259 287 306 312 315 321 322 319 325 338 336 335 326 326 321 316 312 309 306 301 296 286 279 274 272 276 281 273 266 262 263 246 252 244 240 249 264 273
193 199 210 221 237 257 286 310 313 318 323 322 325 336 333 337 335 332 329 325 319 313 312 311 310 304 291 284 274 272 274 276 272 261 261 256 246 249 249 253 259 262 265
192 198 208 216 232 253 290 309 313 320 324 329 335 329 331 341 343 339 335 331 324 321 320 318 317 321 302 275 277 274 273 269 272 254 249 250 246 247 245 249 253 256 262
193 197 206 215 223 246 288 306 318 328 329 342 334 330 335 343 350 342 343 336 333 335 327 332 339 337 338 309 300 298 288 279 266 259 255 254 249 253 254 247 249 255 259
196 198 201 208 213 232 272 300 322 330 339 339 333 337 340 346 347 343 345 342 339 338 335 352 356 353 350 341 327 314 300 284 281 265 252 250 246 249 249 248 252 259 265
190 193 193 197 199 205 245 304 341 342 337 342 339 342 349 345 344 347 349 351 351 353 6 9 359 352 349 346 343 338 329 318 293 261 250 253 253 239 243 253 259 265 262
192 190 185 187 190 184 181 180 84 353 343 354 359 3 7 354 355 355 353 4 5 9 20 16 359 353 346 347 344 342 332 328 319 289 265 250 251 258 259 259 266 262 244
186 181 178 182 182 182 176 142 85 51 27 20 6 8 12 12 8 8 11 12 17 22 22 16 6 353 352 345 346 343 344 340 333 314 286 267 254 249 256 259 260 250 215
182 176 175 176 177 177 162 126 74 30 30 26 28 22 17 19 17 18 20 22 17 18 19 18 14 360 358 352 350 349 353 344 338 327 307 284 269 264 256 257 248 236 192
176 174 175 175 175 170 160 141 110 57 32 20 20 14 23 15 18 22 23 23 20 19 19 19 17 7 359 355 351 348 350 341 340 336 330 312 285 270 250 245 233 204 183
175 174 174 172 173 163 155 139 114 81 48 36 25 20 25 16 21 22 22 23 21 19 19 18 19 15 8 359 354 352 352 347 351 347 340 325 305 279 226 227 213 195 184
174 172 172 172 169 160 151 142 138 99 64 47 29 26 26 22 20 19 20 21 22 20 18 17 18 18 15 8 358 359 360 352 355 351 341 333 317 287 220 220 213 197 187
172 173 174 170 165 161 153 158 147 130 90 63 35 27 28 25 20 17 12 14 18 19 17 17 18 19 21 17 6 9 6 357 359 356 350 346 339 317 220 208 215 208 196
170 174 175 169 165 163 163 165 160 147 108 64 31 24 21 21 16 13 11 9 14 19 20 17 19 20 21 20 10 15 17 9 12 10 9 2 352 327 231 204 218 205 205
173 176 173 171 169 169 170 169 166 158 145 128 31 19 15 14 11 9 9 9 14 16 21 21 19 21 21 20 12 15 19 19 20 22 21 19 15 6 227 205 214 211 210
174 175 173 173 172 174 173 175 173 170 175 176 8 10 7 5 3 3 4 6 10 15 18 18 18 20 23 20 12 13 16 22 23 29 27 28 29 32 54 172 193 201 210